Theta_e
302 302 303 303 303 303 305 304 304 304 303 303 303 303 302 300 298 297 296 298 299 302 302 300 303 305 305 307 307 306 305 309 307 306 307 307 308 307 306 304 305 305 304 304 303 302 303 304 305 308 309 310 311 311 310 309 309 309 309 309 311 312 312 313 313 316 321 327 329 325 323 321 320 319
303 304 304 304 304 305 304 305 305 304 304 303 304 304 302 303 301 299 297 298 299 302 302 302 301 304 303 304 304 305 304 309 305 304 305 306 308 306 305 304 303 303 303 303 302 302 302 303 304 306 306 307 306 306 306 306 307 307 308 308 310 311 313 312 314 315 316 317 319 319 319 319 318 318
304 303 303 303 304 304 304 304 305 305 304 303 303 303 303 303 303 301 300 298 301 301 302 303 303 302 303 302 303 303 304 306 305 305 305 304 306 306 305 304 303 303 302 302 302 302 301 302 302 303 305 306 306 306 306 306 306 306 307 307 309 311 313 315 315 317 319 321 321 321 319 318 318 319
303 303 303 303 303 302 302 303 303 304 305 303 303 303 304 303 302 302 300 298 299 303 303 303 302 302 303 301 300 301 301 303 305 303 304 304 305 304 304 305 303 303 301 301 301 301 301 301 301 301 302 302 304 304 304 305 306 305 304 304 306 308 311 313 314 316 318 320 321 321 319 318 318 318
303 303 303 302 302 302 301 302 302 302 303 303 304 303 303 303 303 302 301 299 298 302 302 304 300 301 301 298 299 299 301 302 303 303 303 304 303 303 303 304 304 302 301 301 301 301 300 300 300 300 300 301 302 303 302 304 304 302 303 304 306 307 309 311 313 314 316 319 320 319 317 316 317 317
303 303 302 302 302 301 300 301 301 301 300 300 301 301 301 301 302 304 301 300 298 295 301 299 298 298 300 297 298 299 300 301 302 300 301 301 302 301 302 302 306 302 302 300 300 301 300 300 300 300 300 300 301 302 301 302 302 301 302 302 305 306 307 307 308 310 312 314 316 315 315 316 317 318
303 302 303 302 302 303 302 302 302 302 300 300 300 301 300 300 301 300 299 299 296 294 295 299 296 297 298 298 296 298 299 300 300 299 299 300 300 301 302 301 303 302 300 300 299 299 299 300 300 300 300 300 300 300 301 301 301 300 300 301 302 304 305 303 303 305 306 309 312 313 313 314 317 317
303 303 303 302 302 303 301 301 302 301 301 301 300 300 300 300 299 300 299 298 298 297 293 295 295 296 297 297 297 297 297 298 299 299 299 299 299 300 300 300 301 303 301 300 299 299 299 299 299 299 300 300 300 300 300 301 300 300 299 300 301 302 303 303 302 303 305 307 309 310 310 312 315 318
304 304 303 303 303 302 301 301 301 301 300 299 299 299 299 299 299 299 298 296 295 295 294 296 297 296 296 296 298 297 296 296 297 298 298 298 298 299 299 299 300 303 300 299 299 298 298 298 299 299 300 300 300 300 300 301 300 299 299 299 301 301 301 302 303 304 304 305 305 308 308 310 313 316
305 305 304 303 303 302 302 302 301 300 300 298 298 298 297 297 297 296 296 296 296 294 294 295 295 296 295 295 296 296 296 297 296 296 297 297 298 298 298 299 299 302 299 300 299 299 298 298 299 299 299 299 299 299 300 300 299 298 298 298 300 300 300 300 301 302 301 302 303 304 306 308 312 315
304 304 304 303 303 303 302 302 302 300 299 298 297 298 297 296 296 295 295 294 294 294 294 294 294 295 296 295 295 295 296 296 296 295 295 296 296 298 297 297 298 301 300 298 296 297 297 298 299 299 298 298 300 299 300 300 299 298 297 297 298 298 299 299 299 301 303 304 303 302 301 301 305 309
305 304 304 304 303 303 303 303 302 301 299 299 298 297 296 295 295 295 295 295 294 294 294 294 294 294 294 294 295 295 295 295 295 295 294 294 294 295 296 297 297 300 298 297 297 297 297 297 298 297 298 299 299 299 300 301 299 298 297 297 299 300 299 299 300 301 302 303 302 300 299 301 304 304
304 304 304 304 303 305 305 302 302 301 300 299 297 296 297 295 296 295 295 295 294 293 295 295 294 294 294 293 294 294 294 293 293 295 295 294 295 295 295 296 298 297 295 295 295 295 297 296 298 297 299 301 301 299 299 300 299 298 297 298 299 299 300 300 302 302 301 302 301 300 300 300 301 299
305 305 305 306 305 304 304 301 298 297 298 300 299 296 296 296 295 295 295 295 295 296 296 295 295 294 293 293 294 294 294 294 295 294 294 293 293 293 294 296 298 297 295 293 293 294 296 297 296 296 297 300 301 300 300 300 298 297 297 298 299 299 299 299 300 300 300 299 300 299 299 299 299 299
308 306 305 305 305 305 304 304 297 296 295 295 295 295 296 297 297 295 295 295 295 297 296 294 294 294 293 294 294 294 293 294 293 293 293 293 293 291 290 289 293 298 294 293 292 293 296 296 293 295 297 299 299 298 299 297 296 296 297 298 298 299 299 299 298 298 298 298 298 298 297 298 298 299
307 307 306 305 304 305 305 305 301 297 295 294 293 293 293 293 294 295 297 296 294 295 295 293 294 294 293 294 293 294 294 293 293 293 292 292 291 290 290 290 289 294 295 292 291 291 295 296 294 294 295 297 298 297 297 296 295 296 297 298 297 298 298 298 298 297 297 297 297 297 297 297 296 296
306 305 305 304 303 303 305 305 300 299 297 294 293 293 293 293 291 290 291 294 298 296 295 295 293 293 293 294 294 294 294 294 292 292 291 291 291 290 290 290 290 292 294 292 291 290 293 294 292 292 295 296 297 298 297 295 295 296 297 297 296 295 295 296 297 296 296 297 297 297 298 298 298 298
305 305 304 302 301 300 303 299 297 297 296 296 296 296 296 296 295 293 291 290 291 294 296 295 295 294 294 295 294 296 295 293 291 291 290 291 290 290 290 291 291 293 294 291 291 289 291 293 292 292 294 296 297 298 297 295 295 296 296 296 296 296 296 296 295 296 296 295 296 296 297 297 297 297
301 301 301 301 299 298 298 298 297 296 295 295 294 294 294 295 296 296 296 295 295 295 294 294 294 294 295 295 296 296 295 294 294 293 292 292 291 291 292 291 292 292 294 294 291 287 290 293 291 292 294 295 296 298 296 296 295 295 296 295 295 295 295 295 294 295 295 295 296 295 295 295 295 295
298 299 299 299 298 297 298 295 293 295 296 294 293 294 294 294 294 294 293 293 294 295 295 295 295 295 295 294 296 295 294 294 294 293 293 292 290 289 288 288 290 289 293 293 290 288 289 292 291 291 294 295 294 296 298 296 296 296 295 295 295 295 295 295 294 295 295 295 296 295 295 295 294 294
297 300 299 298 297 296 296 293 291 292 294 295 295 295 295 294 293 293 294 292 291 291 291 290 290 290 290 290 290 290 290 292 293 292 290 289 289 288 287 288 288 289 290 292 292 290 289 292 291 291 292 293 293 295 297 299 296 295 295 296 296 296 295 295 294 294 295 295 295 295 295 295 295 296
294 298 299 297 294 294 294 291 291 291 295 296 296 295 294 292 291 291 292 293 292 291 290 289 289 289 289 290 290 290 290 290 292 291 288 290 289 288 288 286 288 289 289 291 294 290 289 291 292 290 292 293 294 295 297 297 297 296 296 296 296 296 295 294 293 293 295 295 294 294 294 295 295 300
291 292 294 295 294 294 292 290 290 291 294 296 295 294 294 292 291 291 292 291 291 291 291 290 291 291 290 291 291 292 290 290 291 292 291 290 289 287 288 288 287 286 288 291 294 289 289 290 291 291 289 288 291 294 296 296 297 297 297 298 298 296 295 294 293 293 294 294 294 294 294 294 295 299
290 291 291 292 289 289 289 289 289 289 290 294 294 294 292 291 290 291 291 291 289 289 289 289 289 289 289 289 289 289 290 291 292 292 291 291 290 288 288 288 287 286 287 292 294 290 290 290 289 292 290 287 285 291 293 293 295 296 297 298 298 296 295 294 295 294 294 294 294 294 294 294 295 300
290 290 290 291 290 288 289 289 289 289 290 290 293 292 291 291 291 290 289 290 290 289 289 289 289 289 289 288 288 289 289 290 292 292 291 292 291 290 288 288 287 287 289 291 292 291 288 290 289 290 289 289 289 289 291 292 294 295 297 298 297 298 299 300 298 299 295 294 294 294 293 294 294 298
289 289 289 290 289 288 288 288 289 289 289 289 292 290 288 287 287 291 290 289 289 288 288 288 288 288 288 288 288 289 289 290 290 291 291 291 291 291 291 289 288 287 288 292 290 291 289 289 289 289 289 288 289 290 289 290 292 294 295 296 297 297 298 298 298 299 299 298 297 295 296 293 294 293
289 290 290 291 289 288 288 288 288 288 288 289 289 287 287 287 287 289 289 289 288 288 288 287 287 287 287 287 287 288 288 289 290 290 290 290 291 291 291 292 291 290 291 292 293 292 291 289 291 289 288 289 287 288 288 288 289 294 294 295 296 297 297 297 297 297 298 298 298 294 293 292 291 292
289 289 290 290 288 288 288 288 288 288 288 288 287 287 287 287 288 289 288 287 287 287 287 287 286 287 287 287 287 287 288 288 289 289 289 289 290 290 290 291 291 291 291 291 292 292 291 290 290 292 291 289 287 286 286 289 290 291 291 294 295 295 296 297 296 296 297 298 298 297 297 297 298 297
290 289 288 288 288 288 288 288 288 288 287 286 287 287 287 288 288 288 288 287 287 287 286 286 286 286 287 287 287 288 288 288 288 288 288 289 289 289 290 290 290 291 291 292 292 292 292 291 291 292 291 291 289 288 288 287 289 289 291 291 291 294 296 297 297 297 297 298 298 298 297 298 298 296
288 288 288 288 287 288 288 289 289 288 288 286 286 286 287 287 287 287 288 287 287 286 286 286 286 286 286 286 287 287 287 286 286 287 286 287 287 288 288 287 288 290 291 291 292 292 292 292 291 291 290 290 290 289 289 288 288 289 291 291 292 294 295 296 296 296 295 295 296 296 297 297 297 296
289 288 289 288 287 287 286 286 285 286 286 287 286 286 286 286 286 287 287 287 287 286 286 285 285 286 286 286 286 285 285 285 286 287 286 286 286 287 287 286 286 287 289 291 291 291 291 291 292 291 289 289 289 289 289 290 288 289 290 292 292 289 292 296 296 295 295 295 296 296 295 294 294 293
288 287 286 286 286 286 286 285 285 285 285 285 284 286 285 285 285 286 286 287 287 286 286 285 285 285 285 284 285 285 285 285 286 287 286 286 286 286 286 285 284 285 287 288 290 291 289 291 291 291 290 289 288 288 290 289 288 289 289 291 292 293 295 294 294 295 296 296 293 292 293 294 295 296
286 286 285 284 284 283 282 282 283 284 284 284 284 284 285 286 285 286 286 286 286 286 285 284 284 284 284 284 285 285 285 285 286 287 286 287 286 286 286 284 285 284 284 285 287 289 290 291 291 291 291 291 290 290 288 286 288 290 290 291 292 292 294 295 295 295 296 294 292 293 293 295 295 295
284 282 282 281 281 281 282 282 282 281 281 282 283 283 283 283 285 285 285 285 285 284 284 284 284 284 284 284 285 285 285 285 286 287 286 286 286 285 284 284 284 285 285 285 286 287 288 289 290 290 290 290 291 291 290 288 287 289 290 291 291 290 293 294 295 295 295 293 293 291 291 292 294 295
283 283 282 280 280 280 282 281 281 281 280 281 281 282 282 283 283 283 284 284 283 283 283 283 284 284 284 284 285 284 285 285 285 286 287 286 286 285 285 284 284 285 285 285 285 287 287 287 287 287 287 288 288 290 292 292 289 289 290 291 291 291 292 294 293 294 293 293 293 290 290 291 292 294
283 283 282 281 281 280 282 280 280 281 282 281 282 282 282 283 283 283 283 284 284 283 283 283 283 284 284 284 285 285 285 285 285 285 285 285 285 285 285 285 285 285 285 285 286 287 287 287 287 285 283 284 283 283 285 292 292 291 289 289 292 291 292 293 292 292 291 291 291 290 288 289 290 291
281 281 281 282 281 281 281 281 281 282 283 283 282 282 282 283 284 284 284 283 284 283 283 284 284 284 284 285 285 285 285 285 284 285 285 285 285 285 284 284 285 285 285 285 286 286 287 286 286 285 283 282 281 281 284 288 291 292 293 290 290 292 291 291 289 289 290 291 291 290 289 289 290 290
281 282 283 283 284 284 283 282 280 280 281 282 283 283 284 284 285 285 285 284 284 284 284 284 284 284 285 285 285 285 285 285 285 284 284 285 284 284 284 284 284 284 285 285 286 286 287 286 285 285 284 282 281 282 282 286 288 290 291 292 289 289 289 288 288 288 288 289 289 290 289 289 289 288
284 283 283 283 284 284 282 282 281 280 284 283 283 284 284 284 284 284 284 284 284 285 285 285 285 285 285 285 285 285 284 284 284 284 284 284 284 284 284 284 284 285 285 284 285 286 286 285 285 285 285 284 282 283 285 284 285 289 290 290 291 289 289 289 288 288 288 288 286 286 285 286 287 287
284 284 284 284 284 284 285 284 282 283 283 284 284 285 284 283 284 284 284 284 284 285 285 285 285 285 285 285 285 285 285 284 284 284 284 284 284 284 284 284 284 284 284 284 284 285 285 285 286 286 286 287 287 288 288 287 288 289 289 290 290 290 289 289 288 288 288 288 287 286 285 286 285 286
284 283 284 284 285 284 284 284 285 284 284 285 285 284 284 284 283 283 284 285 284 284 284 285 285 285 285 285 285 285 284 284 284 284 284 284 284 284 284 284 284 284 283 283 284 284 285 286 287 287 287 288 288 288 286 284 284 286 287 289 289 289 289 289 290 289 289 287 287 286 285 285 285 285
283 284 284 283 285 285 285 285 285 284 284 284 283 283 283 282 282 283 284 284 284 284 285 285 285 285 285 285 285 285 284 284 284 284 284 284 284 284 284 284 283 284 283 283 284 285 287 288 288 287 287 286 286 284 283 284 284 285 287 289 289 288 288 288 289 290 291 287 286 285 284 285 286 284
283 284 284 283 283 284 284 284 285 284 283 283 283 282 281 282 282 282 283 283 284 284 284 284 285 285 285 285 285 285 284 284 284 284 284 284 284 284 284 284 284 284 285 285 286 286 287 287 287 286 286 285 285 285 284 285 286 286 286 287 288 287 287 288 288 288 288 289 288 287 288 287 285 283
283 282 284 283 283 283 283 283 284 284 282 281 282 281 281 281 281 282 282 282 283 283 284 284 284 284 284 285 285 285 285 284 285 284 284 285 285 285 284 285 285 285 285 285 285 286 287 287 287 287 285 285 286 285 284 285 285 286 286 287 286 286 285 286 287 287 287 287 287 288 288 288 287 287
283 283 281 279 278 278 278 280 281 282 281 281 281 281 281 281 281 281 281 282 282 283 283 283 284 284 284 285 284 284 284 285 285 285 285 285 285 285 285 285 285 285 285 285 285 285 286 287 287 287 286 286 286 286 286 286 286 286 286 286 285 285 286 286 285 285 285 285 286 286 286 286 286 286
Wind_Speed
6 6 5 6 6 5 5 5 5 5 4 4 4 4 6 5 6 4 4 4 3 5 4 5 6 7 6 7 6 6 7 10 10 7 7 9 9 15 20 20 20 20 20 19 18 17 17 16 15 14 12 11 10 8 8 9 10 10 9 8 7 9 11 11 11 12 15 15 16 15 13 10 9 12
6 6 5 5 5 4 4 5 4 4 5 5 4 5 4 5 7 4 4 2 1 2 3 3 4 6 7 6 7 5 6 11 10 7 7 8 8 13 17 18 18 19 19 19 19 19 18 18 18 17 16 15 15 14 11 10 9 11 11 10 9 7 8 10 11 12 13 12 13 14 14 13 10 9
6 6 6 4 5 3 4 4 3 3 4 5 4 4 3 4 6 6 3 3 2 2 4 3 3 4 5 6 6 6 6 9 10 8 8 9 12 13 11 16 17 17 18 18 19 18 18 17 16 16 16 16 15 15 14 13 11 10 10 9 9 11 11 10 10 11 12 13 13 14 14 14 13 13
4 6 6 5 5 4 5 5 4 4 3 4 5 4 5 4 4 5 4 5 4 2 1 2 4 5 4 6 7 7 6 7 12 7 7 9 11 9 7 12 16 16 17 17 17 18 18 17 17 16 16 16 16 16 15 14 14 12 10 9 9 9 11 11 10 11 12 12 12 12 13 12 13 12
4 5 5 5 5 4 5 5 4 5 5 4 4 4 5 5 3 5 4 4 3 1 0 1 3 4 3 6 6 6 6 7 7 8 7 9 8 8 7 6 12 15 16 16 16 16 17 17 17 17 17 17 17 16 15 15 16 15 14 12 10 8 9 11 11 12 11 11 11 10 10 10 11 11
0 3 5 4 4 3 5 5 5 5 5 6 5 4 5 5 4 1 3 3 3 3 1 4 3 3 2 5 5 6 6 6 5 7 7 7 8 8 7 7 7 14 14 15 15 16 16 16 15 15 15 16 16 16 15 15 15 15 15 14 12 10 7 8 11 12 12 11 9 7 7 7 9 10
2 3 3 4 4 2 5 3 4 4 5 4 6 5 4 6 4 3 3 4 4 4 2 1 3 4 3 4 6 6 4 3 3 5 6 7 6 6 7 7 6 11 13 14 14 14 15 15 15 14 14 14 14 14 13 13 14 14 15 15 15 13 10 6 7 10 11 11 9 4 3 4 6 8
5 5 5 5 5 4 5 5 4 3 4 5 5 5 4 5 5 4 4 4 4 2 4 2 3 3 3 2 2 3 2 3 4 4 2 3 5 5 6 7 6 8 12 12 13 13 13 13 13 13 12 12 12 13 13 13 14 14 14 15 15 14 12 9 6 5 7 9 8 6 3 4 5 8
6 6 6 6 6 6 5 4 5 5 6 5 5 5 4 5 4 3 4 4 4 5 5 1 0 2 2 2 1 4 4 3 3 3 3 4 5 5 4 4 4 5 7 9 11 12 12 13 13 13 12 11 11 12 12 13 13 13 13 14 15 14 12 10 8 6 5 5 6 7 6 5 5 6
5 6 7 5 6 6 7 6 5 5 6 5 5 6 4 4 4 5 4 4 5 6 4 3 2 2 2 3 2 3 3 3 5 4 2 1 3 5 5 5 4 3 4 5 6 6 9 11 12 13 12 11 11 11 11 12 13 12 14 13 13 13 11 9 8 8 7 4 5 6 7 8 5 4
6 6 6 6 7 8 7 7 7 7 6 6 7 7 7 5 6 5 4 4 5 5 4 2 1 1 1 1 3 3 4 2 5 7 6 4 3 4 6 6 3 2 3 3 5 6 6 8 7 10 11 10 9 9 10 10 11 11 12 12 12 11 10 10 9 8 8 7 6 5 6 6 7 6
6 7 6 7 8 8 8 8 8 8 7 6 6 6 7 6 6 6 5 4 4 4 3 3 1 1 1 2 1 2 2 1 2 5 4 7 9 7 4 4 5 2 4 6 6 5 6 6 6 7 7 7 7 7 9 9 10 12 11 11 10 9 8 8 7 6 6 6 6 6 6 6 6 6
6 6 7 7 7 9 9 11 10 10 9 8 7 6 6 6 6 6 4 4 4 2 3 2 1 1 3 2 4 5 4 5 4 3 3 3 4 6 7 5 1 3 6 6 6 6 6 8 5 6 5 4 6 7 7 5 7 10 11 11 9 7 6 6 6 5 5 5 6 6 5 5 5 6
7 8 7 7 10 11 10 10 11 12 13 13 10 9 7 7 6 5 5 4 4 3 2 1 1 4 4 3 1 1 1 1 2 2 3 4 4 5 5 3 0 3 8 11 10 6 5 6 7 6 6 4 5 6 7 4 6 9 11 10 8 6 5 5 5 5 4 4 3 3 4 3 3 3
7 7 7 7 6 7 8 9 10 11 13 12 10 12 11 9 9 6 6 5 5 4 3 3 2 2 4 3 1 1 1 1 2 2 2 3 4 5 6 9 6 3 8 8 9 10 5 6 9 8 6 6 6 7 7 9 10 11 10 10 8 5 4 2 2 3 3 3 3 3 4 3 3 3
6 6 6 5 4 5 7 6 7 8 10 11 11 12 11 9 9 9 7 6 4 4 4 4 4 3 3 1 1 1 1 2 1 1 1 2 3 5 4 4 6 5 7 8 7 9 5 5 7 9 7 7 7 8 10 10 10 11 11 9 8 6 3 1 1 1 2 3 3 3 3 3 3 4
6 6 5 6 4 4 6 6 7 7 7 4 6 7 6 6 6 6 6 4 5 6 5 5 3 4 2 1 1 0 0 1 3 3 3 3 2 3 4 5 6 7 5 4 6 9 7 5 8 9 8 7 7 7 8 10 11 10 9 9 10 10 9 7 5 4 4 4 4 4 4 4 4 4
6 5 5 4 4 3 4 5 6 7 7 6 6 5 5 4 5 6 7 8 8 4 3 4 3 2 3 2 2 1 2 0 3 3 4 3 4 4 5 6 7 6 4 3 5 8 6 4 5 7 8 7 6 6 8 11 10 9 7 7 7 7 5 4 5 5 5 4 4 4 3 3 3 3
4 3 3 4 4 3 4 4 6 7 7 7 5 6 5 4 4 4 4 3 3 3 4 4 5 5 3 3 3 2 2 3 3 3 4 4 5 4 5 5 5 5 3 3 3 6 5 5 5 5 7 7 6 6 8 11 8 9 8 7 7 7 7 5 4 3 4 4 4 5 4 4 4 3
4 4 2 3 3 3 4 3 5 5 7 7 7 6 5 5 4 5 4 5 5 5 4 4 5 4 3 2 2 2 2 2 2 2 2 2 2 3 4 5 4 3 2 3 5 4 5 4 5 7 7 7 7 6 6 7 6 7 8 8 8 8 7 7 6 5 3 2 2 3 3 3 3 3
5 4 4 5 5 5 4 2 6 7 7 6 6 6 5 4 4 3 3 7 8 7 7 6 6 4 3 1 3 4 4 2 2 1 2 4 2 4 7 5 3 4 2 3 3 3 6 4 5 8 6 6 7 6 6 4 5 8 7 7 7 8 9 9 7 6 5 4 3 1 2 3 1 2
6 7 9 5 6 5 3 4 7 7 6 6 5 6 7 6 5 3 2 2 3 6 6 6 4 3 2 1 3 4 4 3 2 2 4 4 2 5 4 8 6 5 3 4 2 3 6 5 4 8 7 5 4 5 5 3 4 5 6 8 9 10 9 9 9 7 6 6 6 5 4 4 4 2
6 6 8 9 8 7 7 9 8 8 7 6 5 6 6 5 5 3 2 3 3 3 2 3 4 2 3 2 3 3 5 5 3 3 4 3 3 5 6 6 7 7 2 3 2 6 5 5 5 4 9 9 4 4 1 4 8 9 5 4 5 8 10 10 9 8 8 7 8 7 5 4 3 2
6 7 7 8 10 11 12 12 12 11 10 7 5 5 5 5 5 2 3 2 3 2 1 1 1 2 2 3 2 3 3 4 4 4 3 3 3 5 6 6 5 7 5 1 3 7 6 4 6 1 6 9 9 5 5 7 6 6 7 6 4 6 8 8 7 10 10 8 8 9 7 5 4 2
6 6 6 5 8 11 12 11 12 11 10 8 6 6 5 3 4 3 3 2 2 2 2 2 3 3 3 3 2 2 3 3 4 4 4 4 4 4 5 6 7 8 7 6 8 5 6 4 8 5 6 6 9 11 8 6 5 6 6 6 7 7 5 5 5 5 6 9 10 10 10 8 7 4
5 5 5 5 7 10 11 10 11 11 10 10 6 6 6 5 5 2 2 2 2 2 2 2 3 3 3 3 4 4 4 4 4 4 5 5 6 5 6 7 8 9 8 3 6 5 8 9 6 8 8 9 12 10 13 10 7 7 8 8 7 7 6 6 5 5 5 4 4 7 7 8 7 6
6 5 5 5 7 9 9 9 9 9 9 7 5 6 6 6 5 4 3 3 3 3 3 2 3 3 3 4 4 4 5 5 5 5 6 7 7 7 7 8 8 9 9 7 7 8 7 9 5 8 10 10 13 11 11 11 9 3 4 4 6 6 6 5 6 6 6 5 5 6 7 7 7 6
7 6 5 5 6 7 8 9 9 9 7 7 7 7 7 6 4 3 3 4 3 2 2 3 3 4 4 4 4 5 5 6 6 7 7 8 8 8 8 9 10 9 9 8 8 8 8 9 8 8 9 11 12 13 13 10 9 8 9 7 6 6 7 6 6 6 6 6 5 4 3 4 4 4
6 6 8 8 9 9 10 10 10 9 9 10 9 8 7 4 4 4 4 3 3 3 3 4 4 4 4 5 6 6 6 6 6 7 7 7 8 8 9 8 8 8 7 7 8 9 9 9 10 10 11 11 13 13 11 12 10 11 9 10 8 6 6 6 5 6 6 6 5 4 5 5 4 3
10 11 11 12 11 9 7 7 7 5 6 8 9 9 6 5 4 3 3 2 2 3 3 4 5 6 6 6 6 6 6 6 8 8 9 9 9 9 9 9 9 8 8 8 9 9 9 9 10 10 11 12 12 13 12 12 12 10 9 8 9 7 8 8 7 6 5 7 6 4 4 3 4 2
8 9 8 7 9 8 10 9 6 5 5 7 6 5 3 3 2 1 1 2 3 4 4 5 5 5 5 6 7 8 8 9 8 8 9 9 9 9 10 10 10 9 9 9 8 8 9 9 9 8 11 11 11 11 12 11 12 11 10 8 8 8 4 4 3 4 5 6 6 5 3 3 5 6
7 8 6 7 5 6 6 6 6 5 4 3 2 3 3 3 2 2 2 2 2 3 3 4 4 7 8 8 8 8 8 8 8 8 9 9 10 9 10 10 10 10 10 9 10 9 8 8 9 9 10 11 12 11 11 11 12 11 11 9 9 10 9 9 8 7 6 4 3 4 6 6 5 5
6 7 6 4 5 5 4 4 3 3 3 3 3 4 4 3 3 3 2 3 4 4 3 4 6 8 7 7 8 8 8 9 9 9 9 9 10 9 8 10 11 11 11 11 10 10 8 7 8 9 9 10 11 12 11 12 11 8 9 9 9 9 8 8 8 7 6 4 5 6 6 6 6 5
6 5 5 4 4 3 3 3 3 2 2 2 3 3 3 3 2 2 2 3 4 3 4 4 5 6 6 7 8 8 9 9 9 9 8 10 9 9 9 10 10 10 10 11 11 10 10 9 6 7 8 9 9 10 10 10 10 10 10 9 8 9 8 7 7 8 7 7 7 7 7 8 6 4
5 5 5 4 4 3 3 3 2 0 0 1 1 2 2 2 3 3 3 3 3 3 4 4 5 6 7 7 8 8 9 10 10 9 8 9 9 9 10 11 11 11 11 11 10 10 9 9 7 8 8 9 10 9 11 12 11 12 10 9 8 9 10 8 7 7 7 7 4 6 7 7 7 4
4 4 5 4 3 3 3 2 1 0 0 1 1 2 2 3 3 3 4 3 4 4 4 5 6 7 7 7 8 8 9 9 9 10 10 9 9 9 9 10 11 11 11 10 11 10 8 9 7 8 10 9 8 9 7 12 16 9 9 9 8 8 9 6 6 5 5 6 5 6 6 7 6 3
5 3 4 4 3 3 3 2 1 0 1 1 2 2 2 3 4 3 5 5 4 4 5 6 7 7 7 7 8 8 8 9 10 9 9 9 8 9 10 10 9 10 10 10 9 8 6 7 7 7 9 9 9 9 9 3 9 13 7 7 7 6 6 5 3 3 4 5 5 5 6 5 6 2
6 4 4 4 4 3 2 1 1 0 1 2 2 2 3 3 4 5 5 4 4 4 4 6 7 7 7 7 8 9 9 9 8 9 9 9 9 9 9 10 9 9 10 10 9 9 6 7 8 8 8 9 9 9 9 5 3 4 5 6 6 5 2 1 2 3 3 3 4 2 2 3 3 1
6 5 5 4 4 3 2 2 2 1 3 2 2 2 3 4 4 4 4 4 4 5 5 6 6 7 7 8 7 8 9 9 9 9 9 9 8 9 10 10 10 10 9 10 9 8 6 8 8 8 8 8 9 9 7 8 8 6 2 4 4 4 4 2 4 3 2 2 1 3 3 3 5 7
6 5 5 5 4 3 2 2 2 2 2 2 2 3 3 4 4 4 5 5 5 5 5 5 7 7 8 8 8 8 8 9 10 9 9 10 10 9 9 8 9 10 10 10 10 8 7 8 7 7 7 8 8 8 6 6 6 6 7 7 10 9 7 3 4 4 3 2 3 2 2 2 2 0
6 3 3 3 3 2 2 2 3 1 2 3 3 3 3 4 4 4 4 5 5 5 6 6 7 7 8 8 8 7 9 9 9 9 9 9 9 9 10 10 10 8 9 11 10 9 9 7 7 10 10 7 6 5 5 6 8 7 5 3 1 4 4 3 4 4 3 3 4 3 3 2 2 2
4 3 2 3 3 2 2 2 2 2 2 2 2 2 3 3 3 6 6 5 5 5 6 7 8 8 8 7 7 7 8 9 9 9 9 9 10 9 10 8 8 8 8 9 10 9 9 7 5 5 5 5 5 6 7 7 7 6 3 1 0 2 4 6 7 9 6 5 5 4 3 2 1 2
4 3 2 2 1 1 1 1 2 2 2 2 2 3 3 3 4 4 4 5 6 6 7 8 8 8 8 8 7 7 7 8 8 9 10 10 9 9 9 8 8 8 9 9 9 8 8 6 5 4 5 5 5 6 7 7 6 6 4 2 1 1 3 6 8 4 3 3 3 2 2 2 3 3
3 3 1 1 0 1 1 2 2 3 2 2 3 2 2 3 4 4 4 5 6 6 7 8 8 8 8 8 8 8 7 7 8 9 10 10 9 9 9 9 9 8 8 7 9 9 6 4 4 4 4 5 6 6 7 6 6 5 4 3 0 1 2 2 4 8 10 11 11 7 6 4 1 0
2 1 1 0 0 0 1 1 1 2 2 2 2 2 2 3 3 4 4 4 5 7 7 7 8 8 7 8 9 9 8 8 9 8 8 8 8 8 8 8 8 8 8 7 8 8 6 4 4 3 4 5 5 6 5 5 5 3 2 2 1 3 2 1 3 5 5 4 9 8 7 9 10 13
Wind_Direction
125 116 114 115 122 122 117 108 113 119 113 116 119 103 103 112 106 65 52 9 25 359 17 34 357 11 8 2 0 6 12 15 15 19 24 26 28 26 34 34 37 38 37 37 36 34 31 29 27 21 15 8 0 353 340 328 319 312 305 298 288 282 284 274 259 259 265 272 280 283 280 271 242 235
126 119 111 119 119 137 121 135 137 128 128 122 111 114 112 116 106 147 97 53 212 331 343 48 360 357 7 1 7 10 11 11 18 19 24 28 22 32 37 35 37 38 39 38 36 33 29 27 26 24 21 16 10 6 360 348 323 311 307 305 300 288 276 277 279 273 266 263 267 271 275 276 262 228
127 127 121 112 118 136 125 121 122 125 126 116 111 107 114 101 121 126 134 89 331 158 28 337 356 349 358 2 7 9 11 8 14 19 19 21 20 30 35 36 34 36 36 35 34 31 27 24 20 18 18 15 11 8 6 3 356 337 321 310 302 297 293 282 271 268 265 266 262 261 264 268 272 267
127 126 129 141 134 129 108 99 101 106 105 125 121 121 110 106 119 124 115 107 71 221 59 4 321 5 358 12 16 12 6 11 17 15 19 14 18 22 17 33 33 34 33 33 31 28 25 20 16 13 13 13 12 10 8 7 8 7 354 332 315 304 296 288 278 269 269 265 263 264 268 269 269 265
135 136 138 155 152 132 115 122 113 103 105 96 95 104 108 103 117 117 110 106 115 1 37 313 347 347 358 42 14 19 11 7 8 19 20 17 18 18 10 13 34 31 31 30 28 26 22 19 15 10 9 9 10 10 10 10 7 4 1 357 343 319 304 295 288 283 276 270 270 267 266 271 273 269
332 134 140 158 149 125 126 138 131 133 134 122 116 134 120 118 110 181 116 99 107 64 300 5 343 6 15 58 23 22 10 12 7 24 23 23 19 15 3 8 24 27 30 27 25 22 19 14 12 9 7 6 6 8 8 9 8 4 1 356 351 342 317 304 301 294 285 276 266 258 265 270 276 276
149 157 170 179 156 115 109 109 123 123 122 120 115 122 118 107 102 70 87 119 90 75 65 248 10 5 353 66 26 17 18 15 15 29 33 29 22 16 5 5 8 23 24 24 22 19 15 10 4 2 2 3 2 3 4 7 5 3 0 357 353 348 342 325 308 303 298 294 287 294 302 302 292 290
177 189 188 204 173 158 141 158 139 130 115 116 114 111 90 107 111 92 82 80 126 143 87 4 44 350 7 7 37 20 30 38 31 30 22 43 37 20 13 2 5 15 17 18 15 13 10 5 358 354 353 355 357 358 1 3 3 3 0 355 353 351 347 344 327 294 301 294 291 280 258 273 280 281
184 188 204 198 178 170 158 173 153 152 139 138 124 118 119 110 115 85 85 90 100 110 95 77 274 322 333 335 331 19 21 23 39 26 31 39 25 27 13 352 3 1 18 14 8 6 2 358 351 346 343 346 353 356 360 2 2 1 357 354 351 351 354 350 338 327 315 296 289 283 272 239 242 257
202 200 208 203 188 182 181 187 174 163 151 140 129 126 128 122 107 106 90 94 87 90 106 113 33 333 11 345 340 0 5 16 10 27 41 108 44 20 8 10 355 4 12 6 3 358 355 353 344 339 334 336 349 358 0 3 360 357 354 352 350 354 358 356 348 341 334 316 305 300 293 288 259 244
208 213 211 197 195 197 199 180 180 173 165 160 159 154 149 148 128 121 123 110 96 96 107 85 99 1 293 23 355 355 346 34 42 360 348 19 63 36 1 346 347 352 2 10 359 350 340 328 332 328 322 326 342 357 357 360 354 350 349 348 349 356 3 6 1 352 337 327 323 315 308 300 299 303
219 222 221 212 201 206 202 191 185 171 170 166 157 170 149 151 134 132 142 116 112 113 100 89 89 348 296 338 278 288 338 9 35 37 14 345 340 352 0 324 315 347 355 345 347 349 334 332 325 318 310 313 331 347 347 351 345 341 340 339 345 355 1 4 1 358 345 329 319 308 303 304 311 321
237 235 227 222 218 215 217 204 187 181 167 161 167 182 160 154 137 138 133 131 118 109 96 87 107 34 5 337 346 356 19 33 10 338 5 328 323 322 330 336 287 21 351 334 331 341 342 330 336 331 326 328 328 335 332 333 335 327 328 324 331 341 352 354 352 352 348 341 331 328 324 326 329 337
236 238 234 233 225 224 227 220 203 188 177 180 175 168 173 159 146 142 133 133 136 122 123 123 95 358 328 318 343 330 343 330 334 349 358 346 331 324 308 262 129 13 3 342 333 343 351 329 326 337 327 317 320 328 327 337 326 317 314 313 314 320 334 345 350 354 0 2 0 349 348 5 12 15
246 246 242 244 236 229 228 222 213 196 189 185 173 168 172 166 152 146 140 160 154 161 184 167 143 190 276 281 216 244 335 41 352 351 339 335 345 8 360 333 327 109 11 341 324 321 355 343 333 334 328 321 323 323 326 338 332 321 311 305 300 303 324 341 6 12 9 21 42 56 51 43 34 38
255 257 259 253 242 226 219 204 190 200 201 181 174 169 170 171 165 161 156 155 157 178 177 188 204 169 223 246 64 34 9 356 333 337 314 356 351 333 330 296 297 328 4 327 318 304 333 341 330 326 326 322 319 320 321 335 334 324 315 309 305 299 288 285 342 25 20 25 23 36 54 55 40 35
252 253 255 260 239 238 207 188 175 173 179 165 153 145 121 78 62 52 61 85 156 170 173 191 202 183 166 134 146 229 325 185 330 323 335 328 299 282 281 278 297 311 331 306 304 311 321 347 336 323 321 323 321 319 324 329 331 323 321 329 329 324 329 341 358 21 25 23 20 17 22 27 30 32
255 247 238 229 229 210 165 161 161 154 141 133 119 108 101 99 59 52 60 69 69 76 148 158 152 178 160 156 174 204 170 8 316 313 304 300 299 292 285 294 285 284 286 286 305 296 310 343 331 317 317 322 316 314 308 311 319 318 320 325 321 317 329 356 7 11 12 7 3 358 355 353 347 343
343 304 201 190 186 153 140 145 154 141 134 122 111 105 92 71 45 40 26 34 94 106 108 121 133 151 172 162 182 200 202 224 243 258 274 288 286 286 285 268 243 267 253 258 304 292 316 320 312 306 311 311 305 296 296 296 313 312 318 328 333 330 328 343 353 14 18 12 6 354 344 335 323 321
21 41 76 123 100 101 87 79 117 116 121 120 122 115 99 77 64 55 24 38 57 83 98 107 120 145 164 169 200 228 227 246 260 284 295 290 260 288 297 296 298 278 264 265 281 277 294 303 297 306 304 301 302 299 289 305 322 321 328 332 330 325 319 322 329 331 338 12 30 14 358 339 346 337
20 34 73 93 106 94 86 105 122 115 113 116 123 112 91 88 93 76 42 41 48 62 76 75 74 85 92 30 292 290 273 241 254 183 299 286 281 307 303 292 288 283 320 281 244 257 288 293 305 304 302 299 299 298 292 308 334 315 302 301 302 304 308 305 305 308 305 305 299 259 258 274 299 305
29 35 61 85 86 87 67 118 121 120 113 107 110 112 115 112 101 92 66 74 48 49 69 44 20 89 46 330 302 279 281 296 256 213 285 298 306 288 277 291 297 294 296 268 208 259 280 304 290 305 303 285 242 285 284 324 298 287 281 278 279 283 285 291 294 292 295 292 287 281 265 275 292 311
46 43 44 60 79 83 85 80 79 79 89 98 102 113 112 99 86 87 108 99 79 39 10 354 13 10 358 348 328 322 317 292 262 217 256 285 280 288 290 289 301 304 233 235 180 296 296 310 295 300 318 310 293 252 289 332 323 314 301 274 282 270 271 272 273 280 284 285 284 274 263 253 256 293
52 50 53 50 57 67 67 68 70 66 74 88 81 86 93 115 111 150 134 115 116 133 116 245 339 294 308 318 319 324 331 324 320 305 278 259 258 271 282 281 276 274 283 225 318 292 287 264 286 172 292 305 304 293 293 285 263 267 283 291 268 273 270 262 261 259 258 259 265 270 260 251 225 245
91 71 57 54 58 70 71 71 68 70 70 73 74 72 83 81 136 133 92 91 81 74 49 5 349 338 334 330 321 310 307 297 297 289 278 268 244 255 272 278 273 268 257 262 276 278 278 285 293 290 272 257 277 294 287 273 257 254 261 267 281 285 275 259 259 266 264 260 258 259 257 240 225 220
87 96 86 68 67 73 73 73 73 73 73 75 77 81 100 96 98 96 111 116 80 53 38 5 346 335 328 328 322 308 297 291 287 283 280 274 268 252 245 257 272 279 277 234 238 254 278 283 277 283 285 286 286 286 294 291 276 261 262 263 264 268 271 280 276 273 263 249 249 237 238 239 230 211
130 121 105 93 82 82 82 80 78 75 75 72 77 91 84 85 84 79 70 57 45 30 18 3 336 321 310 305 298 292 291 282 280 285 280 280 279 274 267 260 250 259 274 281 268 265 260 269 254 266 280 284 285 288 282 289 290 251 244 239 257 255 257 259 262 266 265 253 240 243 246 246 243 229
131 124 118 113 103 99 95 92 86 81 79 86 82 84 93 93 85 87 70 51 43 19 359 345 315 304 290 280 280 285 291 293 293 289 287 287 283 278 276 272 271 267 272 267 263 256 254 258 264 253 259 276 281 284 289 284 282 281 283 279 258 264 264 255 260 264 266 261 256 226 223 245 228 230
113 116 114 107 102 100 96 93 89 77 70 69 68 67 65 73 62 61 59 50 24 360 333 307 295 283 286 291 290 291 292 293 290 286 294 293 289 285 277 270 267 269 267 262 261 256 252 254 263 268 268 270 275 278 280 285 288 287 284 286 279 263 253 248 241 247 253 254 253 246 232 235 234 206
106 107 102 97 89 81 80 74 63 64 60 60 57 52 49 49 57 52 54 16 359 321 313 308 304 304 300 299 298 294 293 297 296 302 304 308 306 304 302 299 292 272 251 248 255 257 258 261 264 269 272 272 272 277 280 284 281 281 276 270 277 281 270 261 248 240 242 254 250 238 246 248 257 227
93 84 86 89 89 88 75 73 66 61 50 51 38 33 37 40 21 20 15 348 324 317 312 307 301 298 297 299 309 313 315 308 304 304 303 304 303 304 305 302 296 291 285 277 260 256 261 260 263 261 274 277 276 274 278 276 277 276 271 263 260 263 260 259 258 247 241 245 251 253 259 247 247 228
96 98 90 76 52 68 55 54 43 36 45 50 41 22 20 14 358 346 326 310 288 283 277 285 294 310 319 317 313 312 309 306 303 305 303 302 301 300 301 298 295 296 295 290 288 265 245 252 255 263 264 272 275 279 276 273 273 275 275 273 270 270 268 264 263 260 241 234 255 247 244 239 239 234
91 86 78 75 65 57 77 62 55 27 29 22 21 18 2 359 345 338 344 323 304 294 295 297 312 316 315 310 311 310 308 306 304 303 301 301 302 303 295 292 295 297 297 297 293 292 278 248 239 247 257 270 271 270 271 273 267 264 269 274 274 270 266 255 250 255 257 232 242 250 259 246 232 239
105 91 92 86 96 93 87 81 70 42 23 12 3 355 339 325 314 297 283 279 280 283 279 281 295 294 301 300 308 309 307 306 306 304 295 301 301 298 298 296 293 292 290 290 294 292 291 283 261 248 245 248 245 249 252 257 265 270 265 263 258 264 260 257 253 247 237 225 231 247 250 260 247 219
103 115 104 103 94 100 103 113 137 171 62 337 321 307 302 289 278 273 280 277 273 279 286 284 287 288 294 299 303 304 305 308 308 308 301 297 295 291 295 292 292 292 292 290 288 289 290 289 283 279 277 275 275 265 230 238 265 261 264 257 254 255 263 253 249 242 233 243 226 249 264 266 258 232
102 112 118 117 125 134 119 166 202 207 246 264 264 270 298 293 279 278 285 282 282 281 280 287 296 297 299 299 300 302 304 306 307 306 305 298 293 291 289 286 286 286 285 285 285 287 285 282 275 278 286 287 284 285 284 213 219 241 250 260 258 255 257 257 250 249 241 246 227 227 245 258 268 231
117 118 121 133 151 151 149 176 194 232 242 252 266 259 262 287 289 284 276 278 274 268 273 283 296 302 302 302 303 303 307 310 309 306 299 296 293 291 289 286 280 282 285 283 281 279 265 271 266 264 277 282 280 280 278 296 234 231 234 254 263 249 259 265 264 262 244 236 240 218 230 244 261 261
134 137 134 143 159 167 165 172 189 239 251 248 255 272 270 274 288 289 290 289 278 271 282 302 305 305 306 308 311 312 313 308 301 297 296 297 297 292 289 290 289 287 287 286 284 278 261 262 260 257 263 270 278 275 284 275 262 250 227 241 262 284 279 252 268 255 262 216 237 265 269 249 254 115
133 141 145 154 170 172 181 199 182 222 252 259 272 283 297 297 293 296 300 296 305 318 314 309 312 313 311 312 311 313 312 310 305 301 298 295 290 291 292 290 291 288 288 288 285 275 262 257 253 248 246 258 262 270 276 284 279 278 253 187 218 259 249 219 259 255 260 272 90 63 49 55 88 102
131 127 143 150 170 178 192 202 217 232 251 274 286 304 305 298 300 305 316 326 322 311 308 309 313 314 313 315 315 312 303 297 297 295 292 292 291 286 285 284 285 289 293 289 288 282 268 258 247 247 244 242 251 259 266 272 278 276 278 263 225 230 260 255 258 267 276 197 140 146 134 156 124 270
125 132 162 160 161 176 191 222 235 250 276 295 310 304 298 293 299 302 308 314 316 317 319 315 313 312 312 312 311 308 303 299 296 294 291 293 289 286 284 284 283 276 281 284 282 281 273 263 251 242 242 252 256 274 275 266 267 271 263 262 288 268 280 245 239 234 236 156 165 160 155 155 139 132
140 149 158 167 163 197 211 246 271 285 307 320 309 300 296 297 292 302 305 312 314 317 317 317 315 312 310 309 308 303 298 297 298 296 294 294 292 288 284 278 274 275 272 275 279 277 277 277 263 248 240 242 244 243 252 258 268 278 278 306 112 3 360 335 248 226 206 155 147 140 115 99 100 128
142 148 152 183 186 219 266 281 295 317 322 315 302 297 302 312 316 317 328 329 329 324 320 316 311 310 308 308 308 306 300 297 296 297 293 289 286 287 288 284 278 277 274 275 276 280 284 280 264 249 240 226 229 229 250 258 266 272 280 274 270 34 19 16 42 76 112 107 88 110 146 152 152 187
143 136 152 134 115 277 305 296 326 339 311 296 292 300 312 318 317 319 330 332 328 322 317 312 310 310 310 309 306 304 298 297 298 296 294 293 290 288 287 286 285 281 279 272 281 284 285 281 266 249 240 236 231 232 242 249 259 261 268 278 223 116 102 66 65 60 59 46 34 56 77 77 60 302
137 132 120 143 203 282 276 314 338 323 308 298 302 308 312 317 317 323 332 332 322 315 309 306 308 306 304 310 312 308 303 299 298 293 291 290 291 290 287 287 287 286 282 282 286 290 293 290 282 243 239 248 242 235 242 245 256 269 249 217 161 117 110 88 80 74 58 60 13 19 82 86 90 94